STARLINK-30836, 58221

Orbit data source: Space-Track

STARLINK-30836, 58221 is a payload satellite owned by SpaceX/Seattle (US) in LEO that was launched on Fri, 03 Nov 2023 UTC via an FALCON 9 launch vehicle from the Air Force Eastern Test Range (AFETR). Payload-class satellites include a variety of spacecraft equipped with specific instruments for various scientific and technological missions. These include communications satellites like Starlink; space stations such as the ISS; scientific satellites like the Hubble; Earth observation satellites from companies like Planet Labs, Umbra, and HawkEye 360; GPS; miniature CubeSats for education and research; and military/defense satellites.

Loading next visibility...
Identifier
58221, 2023-170R
Orbit
LEO
Country
Flag of USUS
Related business
Manufacturer
SpaceX/Seattle
Mission
Operational Commercial Communications
Bus & Motor
STARLINK V2M, Unknown motor
Mass
730 kg wet, ~700 kg dry
Launch date (UTC)
2023-11-03 (3 years ago)
Launch vehicle
FALCON 9
Launch site
Air Force Eastern Test Range (AFETR)
Object type
Payload
Rocket body
Debris
Shape & HBR
Box + 2 Pan, 17.7 m
Radar Cross Section
33.884 m², Large (>1 m²)

Expand to show TLE details & history
Last TLE update: 2 days ago

TLE from 2 days ago
0 STARLINK-30836
1 58221U 23170R   26171.44593116 -.00000890  00000-0 -22829-4 0  9997
2 58221  43.0049 334.0038 0001387 279.9037  80.1658 15.27573047146018
Epoch: 2026-06-20T10:42Z
TLE epoch observation values (Epoch: 2026-06-20T10:42:08.452Z)
Latitude
-0.00001°
Longitude
-95.19187°
Altitude
482.683 km
Speed
7.626 km/s
True Right ascension
22h 16m 00s
True Declination
0° 00' 00"
Sunlit
Object was in full shadow at epoch
Visualization orbit readout
Latitude
Unknown
Longitude
Unknown
Altitude
Unknown
Speed
Unknown
Apparent Right ascension
Unknown
Apparent Declination
Unknown
Sunlit
N/A
Visualization observer readout
Local Sidereal Time
21:28:47
Azimuth
Unknown
Elevation
Unknown
Doppler factor
Unknown
Orbital elements
Apogee altitude
485.966 km
Perigee altitude
484.062 km
Semi-major axis
6,863.151 km
Eccentricity
0.00014
Inclination
43.0049°
RAAN
334.0038°
Arg. of periapsis
279.9037°
True anomaly
80.18146°
Mean anomaly
80.1658°
Eccentric anomaly
80.17363°
Mean motion
3.81731 °/min
Orbital period
94.31 mins
BSTAR
-0.000022829
Loading maneuver chart data...
Computing Atmospheric mass density...
Loading historical data...
Loading historical data...
Loading historical data...
Loading historical data...
Loading historical data...
Loading historical data...
Loading historical data...

Documentation

Showing up to 5 results
|